Flag for Germany Weather past 2 weeks in Landshut, Bavaria, Germany

Now
70 °F

Passing clouds.


Feels Like: 73 °F
Forecast: 60 / 88 °F
Wind: 2 mph from North

Location: Muenchen Flughafen

Current Time: Aug 29, 2015 at 12:35:20 AM

Latest Report: Aug 28, 2015 at 11:00 PM


Visibility: 37 mi

Pressure: 30.13 "Hg

Humidity: 75%

Dew point: 62 °F

Location of LandshutLocation

Historic Weather in Landshut — Graph

°F

Landshut temperature yesterday

Maximum temperature yesterday: 88 °F (at 4:00 PM)
Minimum temperature yesterday: 56 °F (at 5:00 AM)
Average temperature yesterday: 73 °F

Past Weeks' High & Low Weather Summary

 TemperatureHumidityPressure
High88 °F (Aug 28, 4:00 PM)100% (Aug 18, 3:00 AM)30.28 "Hg (Aug 18, 3:00 AM)
Low45 °F (Aug 26, 7:00 AM)27% (Aug 26, 5:00 PM)29.63 "Hg (Aug 24, 7:00 PM)
Average65 °F73%29.97 "Hg
* Reported Aug 13 11:00 PM — Aug 28 11:00 PM, Landshut, Weather by CustomWeather, © 2015

Note: Actual official high and low records may vary slightly from our data, if they occured in-between our weather recording intervals... More about our weather records

Advertising

Landshut weather history for previous 24 hours

 ConditionsComfort  
Time TempWeatherWind HumidityBarometerVisibility
11:00 PM
Fri, Aug 28
70 °FPassing clouds.2 mph75%30.13 "Hg37 mi
10:00 PM73 °FPassing clouds.2 mph69%30.10 "Hg43 mi
9:00 PM75 °FPassing clouds.N/A62%30.07 "Hg43 mi
8:00 PM80 °FScattered clouds.2 mph49%30.03 "Hg43 mi
7:00 PM85 °FScattered clouds.2 mph36%30.01 "Hg37 mi
6:00 PM87 °FPartly sunny.6 mph31%30.01 "Hg37 mi
5:00 PM87 °FPartly sunny.8 mph31%30.01 "Hg37 mi
4:00 PM88 °FPartly sunny.5 mph35%30.01 "Hg37 mi
3:00 PM86 °FPartly sunny.6 mph37%30.01 "Hg37 mi
2:00 PM86 °FPartly sunny.3 mph39%30.02 "Hg31 mi
1:00 PM81 °FPartly sunny.3 mph49%30.03 "Hg28 mi
12:00 PM78 °FScattered clouds.3 mph54%30.04 "Hg28 mi
11:00 AM74 °FPartly sunny.2 mph62%30.06 "Hg28 mi
10:00 AM70 °FOvercast.2 mph72%30.06 "Hg28 mi
9:00 AM67 °FOvercast.3 mph78%30.05 "Hg31 mi
8:00 AM65 °FOvercast.2 mph76%30.04 "Hg31 mi
7:00 AM64 °FOvercast.2 mph80%30.02 "Hg31 mi
5:00 AM56 °FPassing clouds.2 mph95%29.99 "Hg28 mi
4:00 AM58 °FPassing clouds.2 mph93%29.97 "Hg28 mi
3:00 AM59 °FPassing clouds.1 mph96%29.95 "Hg28 mi
2:00 AM60 °FPassing clouds.2 mph91%29.94 "Hg28 mi
1:00 AM64 °FPassing clouds.2 mph83%29.92 "Hg31 mi
Weather by CustomWeather, © 2015

See weather overviewHow to use our weather pages